DAL1142 KSLC-KLAX

Flight info

Callsign DAL1142
Flight time N/A
Altitude 34000
Route ARCHZ1 WINEN LAKRR HAKMN ANJLL4
Aircraft A21N/M-SDE2E3FGHIRWXY/LB1

Departure

Time N/A
Airport Salt Lake City International Airport (KSLC)

Arrival

Time 2026-04-23 04:37
Airport Los Angeles International Airport (KLAX)
Time Latitude Longitude Altitude Speed Heading
2026-04-23 03:16 39.94556 -112.63423 29510 ft 415 kts 214°
2026-04-23 03:16 39.89524 -112.66939 30605 ft 404 kts 215°
2026-04-23 03:17 39.87056 -112.68661 31072 ft 400 kts 215°
2026-04-23 03:17 39.84638 -112.70349 31408 ft 400 kts 215°
2026-04-23 03:17 39.82189 -112.72061 31689 ft 400 kts 215°
2026-04-23 03:17 39.79733 -112.73778 31960 ft 401 kts 215°
2026-04-23 03:18 39.77273 -112.75493 32228 ft 401 kts 215°
2026-04-23 03:18 39.74813 -112.77205 32487 ft 402 kts 215°
2026-04-23 03:18 39.72344 -112.78922 32711 ft 403 kts 214°
2026-04-23 03:18 39.69868 -112.80644 32887 ft 405 kts 214°
2026-04-23 03:19 39.67290 -112.82192 33063 ft 412 kts 207°
2026-04-23 03:19 39.64558 -112.83361 33381 ft 414 kts 205°
2026-04-23 03:19 39.61837 -112.84434 33648 ft 414 kts 205°
2026-04-23 03:19 39.59077 -112.85514 33892 ft 414 kts 205°
2026-04-23 03:20 39.56313 -112.86607 34011 ft 417 kts 205°
2026-04-23 03:20 39.53537 -112.87709 34011 ft 417 kts 205°
2026-04-23 03:20 39.47993 -112.89917 33989 ft 417 kts 205°
2026-04-23 03:21 39.42452 -112.92115 33964 ft 415 kts 205°
2026-04-23 03:21 39.36990 -112.94278 33965 ft 413 kts 205°
2026-04-23 03:22 39.31498 -112.96452 33961 ft 413 kts 205°
2026-04-23 03:22 39.26004 -112.98628 33958 ft 413 kts 205°
2026-04-23 03:23 39.20511 -113.00793 33939 ft 411 kts 205°
2026-04-23 03:23 39.15073 -113.02934 33946 ft 408 kts 206°
2026-04-23 03:24 39.09680 -113.05059 33949 ft 408 kts 206°
2026-04-23 03:24 39.04250 -113.07192 33946 ft 408 kts 206°
2026-04-23 03:25 38.98819 -113.09321 33898 ft 408 kts 206°
2026-04-23 03:25 38.93402 -113.11439 33931 ft 407 kts 206°
2026-04-23 03:26 38.88005 -113.13551 33943 ft 409 kts 206°
2026-04-23 03:26 38.82562 -113.15674 33945 ft 409 kts 206°
2026-04-23 03:27 38.77113 -113.17795 33943 ft 409 kts 206°
2026-04-23 03:27 38.71676 -113.19909 33928 ft 406 kts 207°
2026-04-23 03:28 38.66268 -113.22012 33960 ft 406 kts 207°
2026-04-23 03:28 38.60888 -113.24102 33975 ft 407 kts 206°
2026-04-23 03:29 38.55473 -113.26194 33983 ft 407 kts 206°
2026-04-23 03:29 38.50066 -113.28288 33963 ft 405 kts 207°
2026-04-23 03:30 38.44679 -113.30366 33985 ft 404 kts 207°
2026-04-23 03:30 38.39330 -113.32421 33983 ft 404 kts 207°
2026-04-23 03:31 38.33950 -113.34495 33967 ft 404 kts 207°
2026-04-23 03:31 38.28569 -113.36563 33956 ft 404 kts 207°
2026-04-23 03:32 38.23184 -113.38623 33940 ft 404 kts 207°
2026-04-23 03:32 38.17802 -113.40684 33931 ft 404 kts 207°
2026-04-23 03:33 38.12456 -113.42729 33926 ft 404 kts 207°
2026-04-23 03:33 38.07064 -113.44794 33921 ft 405 kts 207°
2026-04-23 03:34 38.01676 -113.46843 33899 ft 404 kts 208°
2026-04-23 03:34 37.96295 -113.48891 33916 ft 404 kts 208°
2026-04-23 03:35 37.90947 -113.51048 33922 ft 402 kts 210°
2026-04-23 03:35 37.85704 -113.53349 33916 ft 402 kts 210°
2026-04-23 03:36 37.80423 -113.55655 33872 ft 402 kts 211°
2026-04-23 03:36 37.75112 -113.57968 33902 ft 408 kts 211°
2026-04-23 03:37 37.69739 -113.60293 33905 ft 404 kts 210°
2026-04-23 03:37 37.64469 -113.62562 33911 ft 402 kts 211°
2026-04-23 03:38 37.59173 -113.64844 33914 ft 402 kts 211°
2026-04-23 03:38 37.53884 -113.67129 33888 ft 402 kts 211°
2026-04-23 03:39 37.48598 -113.69403 33904 ft 401 kts 211°
2026-04-23 03:39 37.43355 -113.71670 33905 ft 401 kts 211°
2026-04-23 03:40 37.38065 -113.73944 33888 ft 402 kts 210°
2026-04-23 03:40 37.32775 -113.76196 33849 ft 401 kts 210°
2026-04-23 03:41 37.27477 -113.78461 33870 ft 402 kts 210°
2026-04-23 03:41 37.22180 -113.80736 33892 ft 402 kts 210°
2026-04-23 03:42 37.16915 -113.82981 33896 ft 401 kts 210°
2026-04-23 03:42 37.11615 -113.85239 33888 ft 403 kts 210°
2026-04-23 03:43 37.06292 -113.87496 33856 ft 404 kts 210°
2026-04-23 03:43 37.01867 -113.89381 33866 ft 404 kts 210°
2026-04-23 03:44 36.95675 -113.92016 33862 ft 404 kts 210°
2026-04-23 03:44 36.90351 -113.94274 33862 ft 404 kts 210°
2026-04-23 03:45 36.85917 -113.96144 33860 ft 405 kts 210°
2026-04-23 03:45 36.80576 -113.98393 33829 ft 405 kts 210°
2026-04-23 03:46 36.74372 -114.01034 33838 ft 405 kts 210°
2026-04-23 03:46 36.69901 -114.02938 33841 ft 406 kts 210°
2026-04-23 03:47 36.64588 -114.05177 33840 ft 406 kts 210°
2026-04-23 03:47 36.59237 -114.07432 33773 ft 406 kts 210°
2026-04-23 03:48 36.53860 -114.09688 33828 ft 409 kts 210°
2026-04-23 03:48 36.48457 -114.11940 33830 ft 410 kts 210°
2026-04-23 03:49 36.43079 -114.14180 33820 ft 410 kts 210°
2026-04-23 03:49 36.37672 -114.16435 33806 ft 409 kts 210°
2026-04-23 03:50 36.32284 -114.18695 33810 ft 411 kts 209°
2026-04-23 03:50 36.26853 -114.20957 33813 ft 412 kts 209°
2026-04-23 03:51 36.21426 -114.23216 33820 ft 411 kts 209°
2026-04-23 03:51 36.16036 -114.25458 33818 ft 411 kts 209°
2026-04-23 03:52 36.10673 -114.27837 33812 ft 403 kts 215°
2026-04-23 03:52 36.08277 -114.29532 33779 ft 391 kts 224°
2026-04-23 03:52 36.06244 -114.31695 33811 ft 382 kts 233°
2026-04-23 03:53 36.02732 -114.36588 33818 ft 380 kts 236°
2026-04-23 03:53 35.99260 -114.41458 33816 ft 380 kts 235°
2026-04-23 03:54 35.95740 -114.46340 33828 ft 381 kts 235°
2026-04-23 03:54 35.92220 -114.51216 33848 ft 380 kts 235°
2026-04-23 03:55 35.88685 -114.56073 33864 ft 380 kts 235°
2026-04-23 03:55 35.85158 -114.60923 33817 ft 380 kts 235°
2026-04-23 03:56 35.81651 -114.65747 33891 ft 380 kts 235°
2026-04-23 03:56 35.78120 -114.70598 33892 ft 380 kts 235°
2026-04-23 03:57 35.74597 -114.75440 33887 ft 380 kts 235°
2026-04-23 03:57 35.71067 -114.80288 33942 ft 381 kts 235°
2026-04-23 03:58 35.67553 -114.85100 33941 ft 379 kts 235°
2026-04-23 03:58 35.64018 -114.89928 33951 ft 381 kts 235°
2026-04-23 03:59 35.60472 -114.94766 33944 ft 381 kts 235°
2026-04-23 03:59 35.56922 -114.99600 33948 ft 381 kts 235°
2026-04-23 04:00 35.53389 -115.04402 33955 ft 382 kts 235°
2026-04-23 04:00 35.49800 -115.09234 33967 ft 384 kts 234°
2026-04-23 04:01 35.46153 -115.14012 33970 ft 384 kts 234°
2026-04-23 04:01 35.42488 -115.18799 33976 ft 386 kts 233°
2026-04-23 04:02 35.38812 -115.23609 33982 ft 387 kts 233°
2026-04-23 04:02 35.35157 -115.28380 34007 ft 387 kts 233°
2026-04-23 04:03 35.31466 -115.33177 33974 ft 387 kts 233°
2026-04-23 04:03 35.27767 -115.37983 34000 ft 389 kts 233°
2026-04-23 04:04 35.24075 -115.42769 34023 ft 389 kts 233°
2026-04-23 04:04 35.20359 -115.47584 34025 ft 389 kts 233°
2026-04-23 04:05 35.16641 -115.52396 34027 ft 389 kts 233°
2026-04-23 04:05 35.12920 -115.57203 33984 ft 389 kts 233°
2026-04-23 04:06 35.09177 -115.62010 34016 ft 391 kts 232°
2026-04-23 04:06 35.05445 -115.66775 34033 ft 391 kts 233°
2026-04-23 04:07 35.01688 -115.71563 34026 ft 390 kts 233°
2026-04-23 04:07 34.97938 -115.76349 34024 ft 390 kts 233°
2026-04-23 04:08 34.94181 -115.81137 34020 ft 390 kts 233°
2026-04-23 04:08 34.90444 -115.85874 34007 ft 391 kts 233°
2026-04-23 04:09 34.86679 -115.90647 33999 ft 390 kts 233°
2026-04-23 04:09 34.82918 -115.95416 34023 ft 390 kts 233°
2026-04-23 04:10 34.79180 -116.00149 33968 ft 387 kts 233°
2026-04-23 04:10 34.75479 -116.04849 33983 ft 388 kts 233°
2026-04-23 04:11 34.71753 -116.09598 33988 ft 388 kts 233°
2026-04-23 04:11 34.68023 -116.14341 33983 ft 388 kts 233°
2026-04-23 04:12 34.64291 -116.19071 33984 ft 388 kts 233°
2026-04-23 04:12 34.60593 -116.23780 33984 ft 388 kts 233°
2026-04-23 04:13 34.56865 -116.28511 33973 ft 388 kts 233°
2026-04-23 04:13 34.53123 -116.33243 33986 ft 389 kts 233°
2026-04-23 04:14 34.49372 -116.37983 33991 ft 390 kts 233°
2026-04-23 04:14 34.45642 -116.42691 33964 ft 390 kts 233°
2026-04-23 04:15 34.41996 -116.47525 33979 ft 385 kts 239°
2026-04-23 04:16 34.38248 -116.55914 33170 ft 373 kts 248°
2026-04-23 04:16 34.37104 -116.58723 32350 ft 373 kts 248°
2026-04-23 04:16 34.35954 -116.61547 31575 ft 375 kts 248°
2026-04-23 04:16 34.34791 -116.64390 30822 ft 377 kts 247°
2026-04-23 04:17 34.33620 -116.67237 30129 ft 378 kts 247°
2026-04-23 04:17 34.32477 -116.70038 29571 ft 374 kts 248°
2026-04-23 04:17 34.31338 -116.72877 29118 ft 376 kts 248°
2026-04-23 04:17 34.30204 -116.75692 28668 ft 369 kts 248°
2026-04-23 04:18 34.29085 -116.78463 28151 ft 364 kts 248°
2026-04-23 04:18 34.27983 -116.81197 27620 ft 360 kts 248°
2026-04-23 04:18 34.26892 -116.83903 27054 ft 356 kts 248°
2026-04-23 04:18 34.25813 -116.86587 26505 ft 353 kts 248°
2026-04-23 04:19 34.24740 -116.89244 25967 ft 351 kts 248°
2026-04-23 04:19 34.23683 -116.91854 25422 ft 349 kts 248°
2026-04-23 04:19 34.22620 -116.94488 24862 ft 348 kts 248°
2026-04-23 04:19 34.21561 -116.97115 24290 ft 347 kts 248°
2026-04-23 04:20 34.20658 -116.99794 23755 ft 342 kts 254°
2026-04-23 04:20 34.19913 -117.02507 23135 ft 341 kts 255°
2026-04-23 04:20 34.19188 -117.05230 22519 ft 339 kts 255°
2026-04-23 04:20 34.18464 -117.07937 21913 ft 337 kts 255°
2026-04-23 04:21 34.17740 -117.10620 21356 ft 335 kts 255°
2026-04-23 04:21 34.17018 -117.13288 20814 ft 333 kts 255°
2026-04-23 04:21 34.16313 -117.15898 20289 ft 329 kts 255°
2026-04-23 04:21 34.15603 -117.18504 19808 ft 325 kts 255°
2026-04-23 04:22 34.14895 -117.21082 19380 ft 323 kts 255°
2026-04-23 04:22 34.14193 -117.23644 18926 ft 321 kts 255°
2026-04-23 04:22 34.13495 -117.26187 18449 ft 317 kts 255°
2026-04-23 04:22 34.12804 -117.28693 17908 ft 313 kts 255°
2026-04-23 04:23 34.12122 -117.31173 17382 ft 310 kts 255°
2026-04-23 04:23 34.11442 -117.33644 16890 ft 311 kts 255°
2026-04-23 04:23 34.10759 -117.36123 16424 ft 311 kts 255°
2026-04-23 04:23 34.10114 -117.38602 15986 ft 310 kts 256°
2026-04-23 04:24 34.09504 -117.41061 15558 ft 310 kts 256°
2026-04-23 04:24 34.08884 -117.43547 15121 ft 310 kts 256°
2026-04-23 04:24 34.08261 -117.46039 14666 ft 312 kts 256°
2026-04-23 04:24 34.07633 -117.48528 14300 ft 306 kts 256°
2026-04-23 04:25 34.07023 -117.50934 14035 ft 295 kts 257°
2026-04-23 04:25 34.06425 -117.53270 13658 ft 288 kts 257°
2026-04-23 04:25 34.05840 -117.55559 13227 ft 283 kts 257°
2026-04-23 04:25 34.05259 -117.57828 12813 ft 284 kts 256°
2026-04-23 04:26 34.04675 -117.60112 12398 ft 285 kts 256°
2026-04-23 04:26 34.04087 -117.62405 11969 ft 287 kts 256°
2026-04-23 04:26 34.03498 -117.64710 11543 ft 289 kts 256°
2026-04-23 04:26 34.02912 -117.66996 11151 ft 288 kts 256°
2026-04-23 04:27 34.02335 -117.69257 10937 ft 276 kts 258°
2026-04-23 04:27 34.01984 -117.71475 10658 ft 265 kts 265°
2026-04-23 04:27 34.01775 -117.73664 10310 ft 260 kts 266°
2026-04-23 04:28 34.01376 -117.77958 9492 ft 257 kts 266°
2026-04-23 04:28 34.01172 -117.80111 9084 ft 259 kts 265°
2026-04-23 04:28 34.00966 -117.82248 8690 ft 261 kts 265°
2026-04-23 04:28 34.00752 -117.84458 8297 ft 263 kts 265°
2026-04-23 04:29 34.00543 -117.86623 7920 ft 264 kts 265°
2026-04-23 04:29 34.00329 -117.88828 7549 ft 265 kts 265°
2026-04-23 04:29 34.00112 -117.91043 7149 ft 267 kts 264°
2026-04-23 04:29 33.99896 -117.93271 6773 ft 269 kts 264°
2026-04-23 04:30 33.99682 -117.95512 6410 ft 269 kts 264°
2026-04-23 04:30 33.99466 -117.97719 6166 ft 260 kts 264°
2026-04-23 04:30 33.99257 -117.99826 5941 ft 248 kts 264°
2026-04-23 04:30 33.99052 -118.01878 5595 ft 246 kts 264°
2026-04-23 04:31 33.98848 -118.03922 5207 ft 245 kts 264°
2026-04-23 04:31 33.98643 -118.05952 4909 ft 241 kts 264°
2026-04-23 04:31 33.98444 -118.07934 4603 ft 237 kts 264°
2026-04-23 04:31 33.98248 -118.09897 4263 ft 235 kts 264°
2026-04-23 04:32 33.98056 -118.11818 3946 ft 232 kts 264°
2026-04-23 04:32 33.97865 -118.13721 3736 ft 228 kts 264°
2026-04-23 04:32 33.97676 -118.15613 3407 ft 227 kts 264°
2026-04-23 04:32 33.97486 -118.17499 3057 ft 227 kts 264°
2026-04-23 04:33 33.97297 -118.19378 2714 ft 224 kts 264°
2026-04-23 04:33 33.97115 -118.21228 2390 ft 220 kts 264°
2026-04-23 04:33 33.96935 -118.22988 2329 ft 203 kts 264°
2026-04-23 04:33 33.96766 -118.24665 2360 ft 201 kts 264°
2026-04-23 04:34 33.96600 -118.26318 2399 ft 202 kts 264°
2026-04-23 04:34 33.96430 -118.28000 2388 ft 203 kts 264°
2026-04-23 04:34 33.96263 -118.29638 2149 ft 189 kts 264°
2026-04-23 04:34 33.96109 -118.31147 1884 ft 175 kts 264°
2026-04-23 04:35 33.95976 -118.32506 1587 ft 154 kts 264°
2026-04-23 04:35 33.95867 -118.33705 1300 ft 139 kts 264°
2026-04-23 04:35 33.95746 -118.34865 1130 ft 138 kts 263°
2026-04-23 04:35 33.95623 -118.36004 915 ft 136 kts 264°
2026-04-23 04:36 33.95525 -118.37121 707 ft 132 kts 263°
2026-04-23 04:36 33.95406 -118.38185 493 ft 124 kts 263°
2026-04-23 04:36 33.95306 -118.39223 305 ft 125 kts 263°
2026-04-23 04:36 33.95211 -118.40242 122 ft 123 kts 263°
2026-04-23 04:37 33.95108 -118.41197 98 ft 95 kts 263°
2026-04-23 04:37 33.95051 -118.41746 102 ft 37 kts 263°
2026-04-23 04:37 33.95034 -118.41906 100 ft 18 kts 263°
2026-04-23 04:37 33.95010 -118.42063 99 ft 20 kts 249°
2026-04-23 04:38 33.94930 -118.42206 100 ft 22 kts 226°
2026-04-23 04:38 33.94825 -118.42279 102 ft 16 kts 186°
2026-04-23 04:38 33.94718 -118.42273 102 ft 12 kts 168°
2026-04-23 04:38 33.94688 -118.42186 102 ft 14 kts 84°
2026-04-23 04:39 33.94699 -118.42066 99 ft 16 kts 84°
2026-04-23 04:39 33.94714 -118.41927 99 ft 18 kts 83°
2026-04-23 04:39 33.94729 -118.41771 101 ft 20 kts 83°
2026-04-23 04:39 33.94746 -118.41600 101 ft 22 kts 83°
2026-04-23 04:40 33.94768 -118.41415 99 ft 22 kts 75°
2026-04-23 04:40 33.94797 -118.41228 100 ft 24 kts 83°
2026-04-23 04:40 33.94819 -118.41027 101 ft 25 kts 83°
2026-04-23 04:40 33.94839 -118.40824 100 ft 24 kts 83°
2026-04-23 04:41 33.94860 -118.40629 100 ft 23 kts 82°
2026-04-23 04:41 33.94878 -118.40456 102 ft 20 kts 83°
2026-04-23 04:41 33.94885 -118.40323 99 ft 14 kts 117°
2026-04-23 04:41 33.94802 -118.40270 101 ft 13 kts 167°
2026-04-23 04:42 33.94708 -118.40257 98 ft 11 kts 174°
2026-04-23 04:42 33.94673 -118.40259 99 ft 6 kts 216°
2026-04-23 04:42 33.94663 -118.40303 101 ft 4 kts 263°
2026-04-23 04:42 33.94660 -118.40326 101 ft 2 kts 263°
2026-04-23 04:43 33.94660 -118.40334 100 ft 0 kts 263°